Probability
0 3 6 6 5 7 8 9 10 9 7 5 4 3 2 1 0 0 0 0 0 0 0 0 0 0 0 0 0 0 0 0 0 0 0 0 0 0 0 0 0 0 0
1 4 10 9 6 6 8 9 11 11 10 7 5 3 2 1 0 0 0 0 0 0 0 0 0 0 0 0 0 0 0 0 0 0 0 0 0 0 0 0 0 0 0
3 7 12 13 9 7 7 9 12 14 13 11 8 5 3 1 0 0 0 0 0 0 0 0 0 0 0 0 0 0 0 0 0 0 0 0 0 0 0 0 0 0 0
8 10 13 16 14 11 8 8 10 13 14 13 11 9 6 2 1 0 0 0 0 0 0 0 0 0 0 0 0 0 0 0 0 0 0 0 0 0 0 0 0 0 0
13 12 14 16 17 15 11 8 8 10 12 12 11 10 8 5 2 1 0 0 0 0 0 0 0 0 0 0 0 0 0 0 0 0 0 0 0 0 0 0 0 0 0
14 14 14 16 17 17 14 10 8 9 10 11 10 9 9 7 4 2 1 1 1 1 0 0 0 0 0 0 0 0 0 0 0 0 0 0 0 0 0 0 0 0 0
14 13 14 15 16 16 15 12 10 9 10 10 9 8 8 7 5 3 1 1 1 1 1 1 1 0 0 0 0 0 0 0 0 0 0 0 0 0 0 0 0 0 0
16 15 14 14 16 16 15 13 11 10 10 9 9 8 8 8 6 5 4 2 1 2 2 2 1 1 0 1 1 0 0 0 0 0 0 0 0 0 0 0 0 0 0
17 16 15 15 16 15 14 13 11 10 9 10 9 9 9 8 7 7 7 5 3 3 1 1 1 1 1 1 1 0 0 0 0 0 0 0 0 0 0 0 0 0 0
16 16 15 15 16 15 14 11 9 8 8 9 9 10 10 9 7 6 6 6 6 4 1 0 0 0 0 1 1 0 0 0 0 0 0 0 0 0 0 0 0 0 0
16 15 14 14 14 14 13 11 9 7 7 8 9 10 9 8 6 5 4 5 6 4 1 0 0 0 0 0 0 0 0 0 0 0 0 0 0 0 0 1 1 1 0
16 14 13 11 12 12 12 11 10 8 7 7 8 9 9 7 5 4 3 4 4 4 1 0 0 0 0 0 0 0 0 0 0 0 0 0 0 0 0 1 2 2 1
16 14 12 11 10 10 10 11 11 9 7 6 7 8 8 6 4 4 4 3 3 3 1 0 0 0 0 0 0 0 0 0 0 0 0 0 0 0 0 0 1 2 2
13 13 12 11 10 9 8 9 10 10 8 6 6 7 8 6 4 4 4 4 3 2 1 0 0 0 0 0 0 0 0 0 0 0 0 0 0 0 0 0 0 1 2
10 11 11 10 10 9 8 8 9 9 7 5 5 5 6 5 3 3 4 3 2 1 0 0 0 0 0 0 0 0 0 0 0 0 0 0 0 0 0 0 0 1 1
8 9 9 9 9 9 8 8 8 8 6 5 4 4 4 3 3 3 3 3 2 0 0 0 0 0 0 0 0 0 0 0 0 0 0 0 0 0 0 0 0 1 1
7 7 7 7 7 8 8 7 7 7 5 4 4 3 3 2 2 3 3 3 2 1 0 0 0 0 0 0 0 0 0 0 0 0 0 0 0 0 0 0 0 0 0
7 7 6 6 6 6 6 5 6 7 5 4 4 4 3 1 1 2 3 3 3 2 1 0 0 0 0 0 0 0 0 0 0 0 0 0 0 0 0 0 0 0 0
7 7 5 4 4 4 4 4 5 5 3 3 3 4 3 1 0 1 2 3 4 4 1 0 0 0 0 0 0 0 0 0 0 0 0 0 0 0 0 0 0 0 0
6 5 4 3 3 3 3 3 4 3 2 1 1 2 3 2 1 0 1 2 3 3 1 0 0 0 0 0 0 0 0 0 0 0 0 0 0 0 0 0 0 0 0
6 4 2 2 3 3 3 3 3 3 1 0 1 1 2 2 1 0 0 1 2 2 1 0 0 0 0 0 0 0 0 0 0 0 0 0 0 0 0 0 0 0 0
5 3 1 1 2 3 3 3 3 3 2 2 2 2 2 2 1 0 0 0 1 1 1 0 1 1 1 0 0 0 0 0 0 0 0 0 0 0 0 0 0 0 0
4 3 1 0 1 2 3 3 3 3 3 3 3 2 1 1 1 0 0 0 0 1 1 0 1 2 2 1 0 0 0 0 0 0 0 0 0 0 0 0 0 0 0
3 2 1 0 0 1 2 3 3 3 3 3 3 3 1 0 0 0 0 0 0 0 0 0 0 1 1 1 0 0 0 0 0 0 0 0 0 0 0 0 0 0 0
3 2 0 0 0 0 1 3 3 3 3 3 3 3 2 1 0 0 0 0 0 0 0 0 0 0 0 0 0 0 0 0 0 0 0 0 0 0 0 0 0 0 0
3 1 0 0 0 0 1 2 3 3 3 3 3 3 2 1 0 0 0 0 0 0 0 0 0 0 0 0 0 0 0 0 0 0 0 0 0 0 0 0 0 0 0
Wind_Speed
2 3 1 3 5 7 9 10 10 10 10 11 11 12 12 13 13 13 13 13 13 13 13 14 14 14 15 15 15 16 15 15 16 15 14 14 15 16 16 15 14 10 17
1 1 1 4 6 8 9 10 10 9 9 10 10 11 11 12 12 12 12 12 12 12 13 13 13 14 14 14 14 15 15 15 14 14 12 11 13 15 15 14 13 10 16
2 1 2 4 6 8 9 10 10 9 9 9 10 10 11 11 11 11 12 11 11 12 12 12 13 13 13 13 13 14 14 13 13 12 11 6 8 14 14 14 14 15 15
3 3 3 5 6 8 8 9 9 9 9 9 10 10 10 10 10 11 11 11 11 11 12 12 12 12 12 12 13 13 13 13 12 11 6 5 5 12 13 14 14 14 14
4 4 3 7 7 8 8 8 9 9 9 9 9 9 10 10 9 10 10 10 11 11 11 11 11 11 11 11 11 12 12 12 11 9 5 5 4 11 12 13 13 13 13
5 5 5 8 8 8 7 8 8 8 9 9 9 9 9 9 9 9 10 10 10 10 10 11 11 11 10 10 11 12 12 11 9 5 4 4 4 10 12 12 12 12 12
5 5 5 9 9 9 8 7 8 8 8 8 8 8 9 9 9 10 9 9 10 10 10 10 10 10 10 10 11 11 11 10 6 4 4 3 5 11 11 11 11 11 11
5 4 4 7 8 8 8 8 7 8 7 7 8 8 8 8 9 9 9 9 9 9 9 9 9 10 10 10 10 10 9 8 7 5 3 3 8 10 10 10 10 10 10
5 5 5 4 5 7 8 8 8 7 7 7 7 7 8 7 8 8 8 8 8 8 8 8 8 9 9 9 9 9 9 8 4 3 3 3 8 10 10 10 10 10 10
5 5 5 5 5 4 4 7 8 8 7 7 7 7 7 6 6 7 7 7 7 8 8 8 8 8 8 8 9 8 8 7 4 3 2 3 8 10 10 9 9 9 10
6 5 5 5 5 4 3 5 5 6 6 5 5 6 5 3 3 3 4 6 6 7 7 7 7 8 7 7 7 7 5 2 3 2 1 5 8 9 9 9 9 9 9
4 4 4 4 4 4 3 3 2 2 3 3 2 3 2 2 2 3 4 5 5 5 6 6 6 6 5 3 4 5 2 3 2 1 2 6 7 8 8 8 8 9 9
2 3 4 4 3 3 3 2 2 2 2 2 2 2 2 2 2 2 1 2 2 3 2 3 3 2 2 2 2 2 2 2 1 1 1 5 6 7 7 7 8 8 8
2 3 3 3 3 3 2 2 1 1 1 1 1 1 2 1 1 1 1 1 1 1 1 1 1 2 2 2 2 2 2 1 1 1 1 4 4 5 6 7 7 7 7
2 3 3 3 3 3 2 2 2 1 1 1 1 0 1 1 1 1 1 1 1 1 1 1 1 1 1 1 2 2 2 1 1 1 1 3 3 4 6 6 6 6 6
3 3 2 2 3 3 2 2 1 1 1 1 1 1 1 1 2 1 1 1 1 1 1 1 1 1 0 1 2 2 2 2 1 1 1 1 3 4 4 5 5 5 5
3 3 3 2 2 2 2 3 2 2 2 1 1 1 1 1 2 2 2 2 1 2 2 1 1 1 1 1 1 2 2 2 2 1 1 1 1 3 4 4 5 5 5
3 4 4 3 3 3 2 2 2 2 2 2 1 1 2 1 1 2 2 2 2 2 2 2 2 1 1 1 0 1 1 2 2 2 1 1 1 1 2 3 3 4 4
3 3 4 3 3 3 3 2 2 2 2 2 2 1 2 2 1 1 2 2 2 2 2 2 1 1 1 1 1 1 1 1 2 2 2 2 2 2 1 2 2 2 3
4 4 4 4 3 3 2 2 2 2 2 2 2 2 3 2 1 1 2 2 2 2 2 2 2 1 1 1 1 0 1 1 1 2 3 2 2 2 2 1 1 2 3
5 5 5 4 4 3 2 2 2 2 3 3 2 3 3 2 1 1 1 2 3 3 3 3 2 2 1 1 1 1 2 1 1 2 2 2 2 2 2 2 1 1 1
4 4 5 5 4 3 2 2 2 3 2 3 3 3 3 3 2 2 2 2 3 3 3 3 3 2 2 2 2 2 0 1 1 1 1 2 2 1 2 2 2 2 1
4 4 4 5 5 4 3 2 2 3 3 3 3 3 4 3 2 2 2 2 2 3 4 4 4 4 3 2 2 3 3 3 1 1 2 2 2 2 2 2 2 2 2
4 4 4 4 5 4 3 2 2 2 3 4 4 3 4 4 3 2 2 2 3 2 4 4 3 3 4 4 2 1 2 2 2 1 2 2 3 3 3 2 2 2 2
4 4 4 4 4 4 3 2 2 2 3 3 4 4 4 4 3 2 2 2 2 2 3 4 3 3 3 4 3 2 1 1 2 2 2 2 2 3 3 3 2 2 3
4 3 4 4 4 5 4 3 2 3 4 4 4 4 3 3 3 2 2 2 3 3 3 3 4 5 4 4 3 3 3 3 2 2 3 3 3 2 2 2 3 3 2
Wind_Direction
320 318 170 108 99 98 99 97 96 94 94 95 96 96 97 98 99 99 99 99 98 95 92 91 91 91 91 90 89 87 85 83 82 80 78 79 83 87 87 84 81 78 83
314 305 133 100 99 98 98 96 95 93 94 95 97 99 100 101 100 100 100 99 98 96 95 93 92 92 91 90 91 90 88 86 84 80 74 72 78 85 87 86 85 85 85
45 45 105 97 94 96 96 97 94 94 96 97 99 100 101 102 101 102 102 101 99 97 97 95 94 94 92 91 92 92 89 87 85 82 77 68 79 86 88 88 88 88 87
58 46 68 82 91 91 95 98 97 95 97 97 98 98 98 101 103 104 104 102 100 99 100 99 97 95 93 92 92 92 90 87 81 78 70 65 75 88 90 91 89 89 89
55 38 44 67 79 84 87 96 100 99 96 96 96 97 97 98 100 106 106 103 101 100 102 102 99 96 95 94 94 93 90 88 80 72 65 63 72 89 90 92 92 91 90
56 40 40 55 63 74 79 86 96 101 100 97 98 97 99 99 99 101 104 103 103 104 103 104 102 97 93 92 95 95 91 88 77 67 64 67 76 91 91 94 95 94 93
62 51 50 52 55 58 64 78 87 93 100 101 100 101 101 100 99 98 99 101 104 106 106 105 106 101 95 94 98 97 91 89 81 69 65 72 89 94 92 94 98 98 97
74 57 60 51 48 50 53 57 76 84 85 94 98 98 101 100 99 100 99 99 105 109 109 107 103 101 97 97 98 96 92 90 88 80 70 76 94 95 96 97 97 101 101
71 58 47 47 47 48 47 49 51 71 79 83 89 92 91 91 94 98 98 98 99 106 109 105 101 96 98 98 97 91 87 86 82 79 85 83 97 97 97 98 100 101 104
63 52 42 35 34 33 41 48 44 51 68 76 80 84 87 89 92 94 92 96 98 100 104 104 99 94 91 94 98 93 87 81 78 72 74 98 101 101 100 100 99 100 102
48 40 38 31 26 23 31 42 45 49 56 74 84 80 83 85 90 94 87 89 98 100 100 104 101 94 83 83 90 89 84 78 84 72 82 110 110 107 102 101 100 104 105
36 29 29 25 20 19 30 36 38 42 43 45 67 79 77 78 85 94 98 97 95 95 97 99 103 94 80 70 75 76 77 88 81 70 95 115 116 112 109 106 105 105 106
56 30 21 17 15 19 18 22 25 20 21 27 50 76 81 76 77 80 86 94 93 87 79 85 85 75 80 84 79 76 80 89 86 66 91 115 120 119 118 116 113 113 110
50 25 17 18 14 15 12 10 21 9 2 4 356 89 108 104 94 113 111 115 107 97 79 82 78 85 97 101 103 98 91 91 103 97 99 109 122 126 128 127 124 122 120
43 12 6 14 22 12 6 357 3 340 349 338 324 276 139 148 158 166 159 165 145 133 127 113 114 90 110 124 120 115 116 110 113 113 110 117 120 129 133 137 134 133 131
24 2 357 11 18 7 357 337 334 331 317 310 291 295 212 182 179 180 177 179 169 157 160 163 156 133 141 134 133 133 139 143 122 116 113 139 133 132 133 138 137 139 143
20 6 2 14 15 0 348 333 339 320 306 291 286 284 257 205 193 187 192 192 192 176 164 153 146 117 135 117 140 155 153 159 154 148 147 141 144 142 143 147 147 145 147
26 12 4 8 360 350 344 333 325 315 319 295 290 290 281 233 204 189 200 203 196 180 168 165 163 143 158 142 167 199 173 173 175 176 169 159 154 161 161 154 155 162 169
25 12 3 4 359 349 343 329 326 322 322 314 306 309 303 263 221 196 210 208 191 182 180 184 178 170 175 174 183 207 181 181 187 182 183 178 170 167 169 170 167 174 185
20 15 5 5 359 355 350 342 350 348 336 330 316 313 313 281 250 217 211 206 192 186 191 188 180 180 177 174 166 25 280 221 196 185 191 180 180 179 174 180 189 211 206
20 16 3 1 355 357 352 344 338 327 319 317 313 307 310 299 264 235 218 210 206 199 198 188 176 175 174 147 95 29 336 282 202 200 190 174 181 185 177 188 194 208 229
14 9 358 358 346 344 330 318 309 306 299 302 304 312 307 295 274 254 221 211 216 205 197 195 174 171 185 172 150 140 8 304 296 250 210 192 187 180 189 198 196 203 218
1 353 347 346 341 338 341 344 341 338 328 321 319 316 314 302 279 267 252 231 220 207 198 201 192 179 185 204 186 166 168 210 253 272 246 212 195 196 213 215 208 214 212
337 338 341 341 339 341 341 336 323 320 309 305 300 300 309 312 295 289 276 252 231 222 208 202 200 196 181 195 212 214 199 176 175 224 266 251 221 211 214 221 219 220 213
332 340 339 342 342 343 341 320 313 317 302 307 305 302 306 316 305 296 278 259 243 235 219 216 210 207 197 197 200 206 218 218 188 182 228 243 253 231 218 218 216 218 213
338 346 343 343 340 343 337 327 318 310 306 310 309 306 311 310 294 297 294 274 255 244 230 230 219 216 214 209 209 207 202 193 193 189 209 224 239 252 237 215 209 215 218